Regional Weather Roundup
Issued by NWS Glasgow, MT

Home | Current Version | Previous Version | Text Only | Print | Product List | Glossary On
Versions: 1 2 3 4 5 6 7 8 9 10 11 12 13 14 15 16 17 18 19 20 21 22 23 24 25 26 27
000
ASUS45 KGGW 240815
RWRGGW
HOURLY REGIONAL WEATHER ROUNDUP FOR NORTHEAST MONTANA
NATIONAL WEATHER SERVICE GLASGOW MONTANA
200 AM MDT TUE OCT 24 2017

NOTE: "FAIR" INDICATES FEW OR NO CLOUDS BELOW 12,000 FEET WITH NO
SIGNIFICANT WEATHER AND/OR OBSTRUCTIONS TO VISISBILITY.

NORTHEAST MONTANA


CITY           SKY/WX    TMP DP  RH WIND       PRES   REMARKS
GLASGOW        CLEAR     30  23  75 W6        30.45S
WOLF POINT     CLEAR     33  23  66 SW9       30.46S
JORDAN           N/A     31  23  72 W9        30.48F
SIDNEY         CLEAR     37  24  59 NW13      30.42F
GLENDIVE       CLEAR     33  22  63 W10       30.47R

FORT PECK REPORTS


CITY           SKY/WX    TMP DP  RH WIND       PRES   REMARKS
FORT PECK        N/A     41  27  57 W6          N/A
THE PINES        N/A     40  23  50 SW6         N/A

SOUTHEAST MONTANA


CITY           SKY/WX    TMP DP  RH WIND       PRES   REMARKS
BILLINGS       CLOUDY    40  22  48 S12       30.52F
MILES CITY     CLEAR     32  24  72 W10       30.49F
BAKER          CLEAR     31  24  75 W10       30.46F
LIVINGSTON     CLOUDY    43  21  41 W20       30.59F

CENTRAL MONTANA


CITY           SKY/WX    TMP DP  RH WIND       PRES   REMARKS
HAVRE          CLOUDY    33  25  72 SW7       30.44F
LEWISTOWN      CLOUDY    39  23  52 CALM      30.49F
GREAT FALLS    CLOUDY    42  26  53 SW14      30.49F
CUT BANK       CLEAR     45  26  47 W24G30    30.42F
HELENA         CLEAR     48  26  42 W13       30.62F
BUTTE          CLOUDY    29  24  82 NE5       30.68S
BOZEMAN        CLOUDY    27  21  78 SE5       30.66F

WESTERN MONTANA


CITY           SKY/WX    TMP DP  RH WIND       PRES   REMARKS
MISSOULA       CLEAR     32  30  92 CALM      30.72F
KALISPELL      NOT AVBL

NORTH DAKOTA


CITY           SKY/WX    TMP DP  RH WIND       PRES   REMARKS
WILLISTON      CLEAR     38  28  67 NW12      30.39F
DICKINSON      CLEAR     32  26  78 W10       30.38S
MINOT          CLEAR     37  30  75 NW14      30.32S
BISMARCK       CLEAR     39  30  70 NW7       30.33R

SOUTHERN SASKATCHEWAN


CITY           SKY/WX    TMP DP  RH WIND       PRES   REMARKS
REGINA         CLEAR     27  23  86 SW5       30.35F
ESTEVAN        PTCLDY    28  27  93 W10       30.35F
SWIFT CURRENT  CLEAR     30  21  69 SW12      30.35F





USA.gov is the U.S. government's official web portal to all federal, state and local government web resources and services.